Location: A�t bou Hou
(32.9396°N, 5.7956°W)
Time: 20:55:29
(UTC+00:00)

Daily predictions for brighter satellites

Satellite Brightness Start Highest point End
(mag) Time Altitude Azimuth Time Altitude Azimuth Time Altitude Azimuth
Milstar 3 4.3 19:30:40 10° WSW 19:39:59 70° S 19:58:35 10° E
SJ 16-02 3.9 19:57:05 10° NW 20:00:24 21° W 20:03:42 10° SSW
CZ-4 R/B 4.2 19:58:22 10° SW 20:00:54 16° W 20:03:25 10° NW
Cosmos 2228 3.7 19:59:29 10° NNW 20:03:46 58° W 20:08:04 10° S
OAO 3 Rocket 3.5 20:01:36 10° W 20:06:27 68° N 20:11:23 10° E
Cosmos 1244 Rocket 4.5 20:01:39 10° S 20:07:41 66° E 20:13:47 10° NNE
DELTA 2 R/B (1) 4.1 20:03:13 10° SSW 20:08:19 38° SE 20:13:26 10° ENE
Cosmos 1626 3.7 20:09:16 10° SSW 20:12:44 39° W 20:16:13 10° N
Cosmos 2219 Rocket 3.7 20:13:20 10° SE 20:16:30 16° E 20:19:41 10° ENE
Cosmos 1818 3.5 20:12:13 10° SSW 20:17:35 72° ESE 20:23:01 10° NNE
Cosmos 2263 Rocket 2.2 20:12:39 10° NNW 20:18:14 80° ENE 20:23:47 10° SSE
Cosmos 2360 Rocket 2.3 20:13:14 10° S 20:18:42 57° ESE 20:24:14 10° NNE
Cosmos 1461 3.8 20:15:38 10° NNW 20:20:11 44° ENE 20:24:13 13° SE
CZ-2C R/B 4.5 20:18:58 10° S 20:24:23 43° W 20:29:39 10° NNW
Atlas Centaur 2 2.2 20:22:18 10° WSW 20:27:29 68° S 20:34:09 10° E
USA 215 3.7 20:23:15 10° ENE 20:29:09 35° SE 20:35:01 10° S
Cosmos 2333 Rocket 3.3 20:25:46 10° SSE 20:30:10 24° ESE 20:34:37 10° NE
Cosmos 1356 Rocket 3.8 20:26:48 10° NNW 20:31:01 66° W 20:35:07 10° S
Cosmos 2150 Rocket 4.0 20:26:23 10° NNW 20:31:38 84° ENE 20:36:54 10° SSE
ARGOS 4.0 20:27:40 10° S 20:32:53 50° W 20:38:10 10° NNW
MetOp-A 4.1 20:30:04 10° SSE 20:35:24 82° ENE 20:40:47 10° N
Hubble Space Telescope 2.8 20:33:50 10° S 20:35:02 12° SSE 20:35:02 12° SSE
Delta 2 Rocket 3.5 20:34:35 10° W 20:38:01 52° N 20:41:15 10° ENE
SL-16 R/B 3.9 20:33:49 10° SW 20:39:01 37° WNW 20:44:15 10° N
CZ-2C R/B 3.1 20:34:39 10° N 20:39:56 65° WNW 20:45:07 10° SSW
Ariane Rocket 4.0 20:35:24 10° S 20:40:16 46° W 20:45:10 10° NNW
Cosmos 1602 Rocket 3.5 20:38:00 10° S 20:42:22 89° W 20:46:50 10° N
Cosmos 1812 Rocket 4.0 20:38:56 10° N 20:43:04 42° E 20:45:43 20° SE
GEOS 3 Rocket 3.8 20:39:22 10° NE 20:44:38 53° ESE 20:49:50 10° SSW
ATLAS 5 CENTAUR R/B 2.1 20:43:30 10° SW 20:47:25 56° WNW 20:51:40 10° NNE
OAO 2 Rocket 3.5 20:42:28 10° W 20:47:46 78° N 20:53:06 10° ENE
FALCON 9 R/B 0.2 20:47:34 10° W 20:50:08 57° SSW 20:50:39 41° SE
Meteor 2-10 Rocket 3.6 20:51:24 10° N 20:56:30 59° E 20:59:57 21° SSE
Cosmos 1125 Rocket 3.5 20:53:30 10° NNW 20:58:47 87° WSW 21:02:36 19° SSE
Cosmos 1844 Rocket 3.6 20:54:01 10° N 20:59:00 33° ENE 21:01:37 22° ESE
Nadezhda 1 Rocket 4.1 20:55:10 10° N 21:01:32 65° E 21:06:01 20° SSE
SPOT 3 Rocket 4.0 21:04:16 13° S 21:08:52 61° WSW 21:14:02 10° NNW
Cosmos-2242 3.7 21:06:55 10° NNE 21:10:58 37° E 21:11:56 33° ESE
Cosmos 1400 Rocket 3.5 21:07:57 10° NNE 21:11:32 33° ENE 21:12:01 32° E
Resurs 01 Rocket 1.6 21:09:11 24° S 21:11:49 81° W 21:16:15 10° NNW
Terra 3.8 21:14:58 13° ENE 21:15:39 13° ENE 21:17:54 10° NE
Geosat 4.0 21:17:28 28° SSE 21:20:08 76° WSW 21:25:10 10° NNW
SAR-Lupe-2 3.8 21:19:41 10° NNE 21:22:58 47° E 21:22:58 47° E
Cosmos 1758 Rocket 4.2 21:24:17 14° SSW 21:28:03 56° W 21:32:29 10° N
Cosmos 1328 4.2 21:29:50 26° SSW 21:31:52 60° W 21:35:47 10° N
USA 245 3.0 21:32:32 61° NE 21:32:32 61° NE 21:36:00 10° N
NOSS 3-3 (A) 3.9 21:28:37 10° SSW 21:34:15 79° WNW 21:40:30 10° NNE
NOSS 3-3 (C) 3.9 21:28:42 10° SSW 21:34:21 80° WNW 21:40:37 10° NNE
Cosmos 1455 2.7 21:30:43 10° NNW 21:34:30 55° W 21:35:38 38° SSW
ATLAS CENTAUR R/B 3.8 21:32:14 10° W 21:34:38 20° SW 21:35:40 18° SSW
Alouette 2 Rocket 4.0 21:31:01 10° N 21:35:18 64° E 21:37:00 42° SE
Cosmos 1538 Rocket 3.9 21:38:50 28° SSW 21:41:42 85° ESE 21:47:04 10° NNE
OAO 1 Rocket 4.5 21:41:23 10° WNW 21:46:43 77° N 21:48:31 42° E
COSMOS 2428 2.7 21:43:40 16° SSW 21:48:17 80° WNW 21:53:58 10° NNE
OAO 3 Rocket 3.1 21:45:12 10° WNW 21:50:07 78° SSW 21:50:38 69° SE
Cosmos 1953 Rocket 4.0 21:50:02 39° SW 21:51:22 58° W 21:55:38 10° N
DELTA 2 R/B (1) 3.8 21:49:02 10° WSW 21:54:35 69° NNW 22:00:11 10° ENE
Cosmos 2074 Rocket 4.2 21:54:31 46° ESE 21:55:18 48° E 22:01:14 10° NNE
Cosmos 1844 3.6 21:50:57 10° NNW 21:56:44 87° ENE 21:57:55 58° SSE
ERS-1 Rocket 2.9 21:56:48 60° ESE 21:57:16 64° ENE 22:02:15 10° N
Cosmos 2237 Rocket 2.7 21:59:40 42° E 21:59:40 42° E 22:04:22 10° NE
Cosmos 2219 Rocket 2.8 21:54:27 10° SW 21:59:53 54° WNW 22:05:22 10° N
Cosmos 2181 Rocket 3.9 21:54:22 10° N 22:00:40 72° E 22:02:01 55° SE
ATLAS CENTAUR R/B 3.1 21:58:52 10° N 22:00:56 20° NE 22:00:56 20° NE
SPOT 5 3.0 22:02:26 61° E 22:02:39 62° ENE 22:07:29 10° N
Cosmos 2344 3.7 22:05:03 45° SE 22:05:45 47° ESE 22:12:51 10° NE
Landsat 7 4.3 22:05:01 46° SW 22:05:52 52° W 22:10:31 10° NNW
Meteor 1-27 4.2 22:04:17 10° N 22:10:03 72° E 22:10:38 66° ESE
USA 215 4.0 22:05:53 10° NNE 22:12:12 53° NW 22:18:29 10° WSW
Cosmos 2333 Rocket 3.5 22:08:55 10° SW 22:14:08 38° WNW 22:19:26 10° N
Atlas Centaur 2 2.5 22:10:40 10° W 22:16:40 63° S 22:17:13 61° SSE
NOSS 0 Rocket 3.9 22:22:19 51° SSW 22:23:59 81° WNW 22:30:10 10° NNE
CARTOSAT-1 4.2 22:26:48 52° WNW 22:26:48 52° WNW 22:30:25 10° NNW
Cosmos 1315 Rocket 3.8 22:22:28 10° N 22:25:29 47° NNW 22:25:29 47° NNW
OAO 2 Rocket 3.5 22:27:30 10° WNW 22:32:34 73° NNW 22:32:34 73° NNW
Meteor 2-2 Rocket 4.3 22:30:31 10° N 22:35:55 66° ENE 22:35:55 66° ENE
Cosmos 1610 Rocket 4.4 22:36:57 69° E 22:36:57 69° E 22:43:13 10° NNE
Cosmos 1680 Rocket 3.7 22:39:45 68° NNE 22:39:45 68° NNE 22:44:23 10° NNE
Cosmos 2278 Rocket 2.7 22:35:35 10° N 22:40:40 47° NE 22:40:40 47° NE
Cosmos 1844 Rocket 4.1 22:38:08 10° NW 22:42:41 26° WSW 22:43:18 26° WSW
SL-16 R/B 3.7 22:46:34 25° ENE 22:46:34 25° ENE 22:49:16 10° NE
Terra 2.7 22:53:51 44° WNW 22:53:51 44° WNW 22:57:32 10° NNW
Cosmos 2221 3.9 22:49:17 10° NNW 22:52:05 38° NNW 22:52:05 38° NNW
Cosmos 2184 Rocket 4.4 22:53:36 49° WSW 22:54:36 54° W 23:00:43 10° N
NOSS 3-4 (A) 4.2 23:15:43 10° NNW 23:22:50 58° ENE 23:23:28 56° ENE
NOSS 3-4 (C) 4.2 23:15:50 10° NNW 23:22:57 57° ENE 23:23:36 55° ENE
Cosmos 2341 Rocket 4.3 23:40:08 62° NW 23:40:08 62° NW 23:45:29 10° N
Cosmos 2237 Rocket 4.2 23:41:25 19° W 23:43:12 22° WNW 23:47:33 10° N
ATLAS 2AS CENTAUR R/B 2.8 23:43:22 10° NNW 23:50:03 73° N 23:50:03 73° N
